Skip Page Navigation
NASA JPL Caltech
NASA Logo - Jet Propulsion Laboratory + View the NASA Portal
+ Center for Near-Earth Object Studies
JPL Home Earth Solar System Stars & Galaxies Technology
JPL Solar System Dynamics
BODIES ORBITS EPHEMERIDES TOOLS PHYSICAL DATA DISCOVERY FAQ SITE MAP
JPL Small-Body Database Browser
Search: [ help ]  
22554 Shoshanatell (1998 FC118)
Classification: Main-belt Asteroid          SPK-ID: 2022554
Ephemeris | Orbit Diagram | Orbital Elements | Mission Design | Physical Parameters | Discovery Circumstances ]

[ show orbit diagram ]
Orbital Elements at Epoch 2459200.5 (2020-Dec-17.0) TDB
Reference: JPL 34 (heliocentric ecliptic J2000)
 Element Value Uncertainty (1-sigma)   Units 
e .17457715433888 3.8153e-08  
a 2.255269679194557 6.1248e-09 au
q 1.861551116334013 8.5535e-08 au
i 6.134902462882339 3.6124e-06 deg
node 240.0687871037277 3.4685e-05 deg
peri 136.9234895110995 3.6085e-05 deg
M 82.66600896934359 1.0038e-05 deg
tp 2458916.433108682241
(2020-Mar-07.93310868)
3.4154e-05 TDB
period 1237.075336639483
3.39
5.0394e-06
1.38e-08
d
yr
n .2910089542144947 1.1855e-09 deg/d
Q 2.648988242055101 7.194e-09 au
  Orbit Determination Parameters
   # obs. used (total)      1683  
   data-arc span      14089 days (38.57 yr)  
   first obs. used      1982-08-16  
   last obs. used      2021-03-13  
   planetary ephem.      DE441  
   SB-pert. ephem.      SB441-N16  
   condition code      0  
   norm. resid. RMS      .50457  
   source      ORB  
   producer      Otto Matic  
   solution date      2021-Apr-13 04:07:34  

Additional Information
 Earth MOID = .86798 au 
 Jupiter MOID = 2.83034 au 
 T_jup = 3.596 
[ show covariance matrix ]

Ephemeris | Orbit Diagram | Orbital Elements | Mission Design | Physical Parameters | Discovery Circumstances ]

Physical Parameter Table
Parameter Symbol Value Units Sigma Reference Notes
absolute magnitude H 14.7   n/a MPO384946  
diameter diameter 3.462 km 0.921 urn:nasa:pds:neowise_diameters_albedos::2.0[mainbelt] (http://adsabs.harvard.edu/abs/2017AJ....154..168M)  
geometric albedo albedo 0.194   0.108 urn:nasa:pds:neowise_diameters_albedos::2.0[mainbelt] (http://adsabs.harvard.edu/abs/2017AJ....154..168M)  

22554 Shoshanatell           Discovered 1998 Mar. 31 by the Lincoln Laboratory Near-Earth Asteroid Research Team at Socorro.
Shoshana Sophie Rothman Tell (b. 1988) is a finalist in the 2006 Intel Science Talent Search (STS), a science competition for high school seniors, for her medicine and health project. She attends the Pine Crest School, Ft. Lauderdale, Florida.
NOTE: some special characters may not display properly (any characters within {} are an attempt to place the proper accent above a character)
Reference: 20060314/MPCPages.arcLast Updated: 2006-03-23

Alternate Designations
 1998 FC118 = 1986 YF1 = 1989 UJ 
Ephemeris | Orbit Diagram | Orbital Elements | Mission Design | Physical Parameters | Discovery Circumstances ]
ABOUT SSD CREDITS/AWARDS PRIVACY/COPYRIGHT GLOSSARY LINKS
FirstGov 2021-Apr-20 05:09 UT
(server date/time)  
NASA Home Page
Site Manager:   Ryan S. Park
Webmaster  Alan B. Chamberlin